Location: Altleiningen
(49.5078°N, 8.0741°E)
Time: 18:37:25
(UTC+00:00)

Cosmos 1844 Rocket - Visible Passes

Search period start: 16 June 2021 00:00
Search period end: 26 June 2021 00:00
Orbit: 823 x 845 km, 71.0° (Epoch: 16 June)

Date Brightness Start Highest point End Pass type
(mag) Time Alt. Az. Time Alt. Az. Time Alt. Az.
16 Jun 2.9 20:36:30 10° NNW 20:42:11 69° ENE 20:47:39 11° SE visible
16 Jun 4.4 22:21:15 10° NW 22:25:33 23° WSW 22:29:19 12° SSW visible
17 Jun 2.9 20:19:17 10° NNW 20:24:56 64° ENE 20:30:35 10° SE visible
17 Jun 4.3 22:03:54 10° NW 22:08:23 25° WSW 22:12:33 11° SSW visible
18 Jun 4.2 21:46:33 10° NW 21:51:12 27° WSW 21:55:50 10° SSW visible
19 Jun 4.2 21:29:13 10° NW 21:34:02 29° WSW 21:38:49 10° SSW visible
20 Jun 4.1 21:11:54 10° NW 21:16:51 31° WSW 21:21:46 10° SSW visible
21 Jun 4.0 20:54:36 10° NW 20:59:40 34° WSW 21:04:42 10° S visible
22 Jun 3.9 20:37:18 10° NW 20:42:28 37° WSW 20:47:37 10° S visible
23 Jun 3.8 20:20:01 10° NW 20:25:17 40° WSW 20:30:31 10° S visible
